Flag for Canada Weather past 2 weeks in Thunder Bay, Ontario, Canada

Now
21 °F

Light snow. Ice fog.


Feels Like: 21 °F
Forecast: 6 / 27 °F
Wind: 2 mph from Northeast

Location: Thunder Bay

Current Time: Mar 3, 2015 at 11:11:24 AM

Latest Report: Mar 3, 2015 at 10:00 AM


Visibility: 1 mi

Pressure: 29.67 "Hg

Humidity: 93%

Dew point: 19 °F

Location of Thunder BayLocation

Historic Weather in Thunder Bay — Graph

°F

Thunder Bay temperature yesterday

Maximum temperature yesterday: 25 °F (at 4:00 PM)
Minimum temperature yesterday: 0 °F (at 8:00 AM)
Average temperature yesterday: 14 °F

Past Weeks' High & Low Weather Summary

 TemperatureHumidityPressure
High27 °F (Mar 1, 4:00 PM)93% (Mar 3, 9:00 AM)30.66 "Hg (Mar 3, 9:00 AM)
Low-31 °F (Feb 19, 8:00 AM)27% (Feb 27, 5:00 PM)29.41 "Hg (Feb 24, 5:00 AM)
Average0 °F64%30.17 "Hg
* Reported Feb 16 10:00 AM — Mar 3 10:00 AM, Thunder Bay, Weather by CustomWeather, © 2015

Note: Actual official high and low records may vary slightly from our data, if they occured in-between our weather recording intervals... More about our weather records

Advertising

Thunder Bay weather history for previous 24 hours

 ConditionsComfort  
Time TempWeatherWind HumidityBarometerVisibility
10:00 AM
Tue, Mar 3
21 °FLight snow. Ice fog.2 mph93%29.67 "Hg1 mi
9:00 AM19 °FLight snow. Overcast.5 mph93%29.70 "Hg1 mi
8:00 AM16 °FLight snow. Overcast.2 mph86%29.75 "Hg2 mi
7:46 AM16 °FLight snow. Overcast.No wind86%29.75 "Hg15 mi
7:00 AM16 °FMostly cloudy.No wind86%29.80 "Hg15 mi
6:00 AM19 °FOvercast.3 mph68%29.82 "Hg15 mi
5:00 AM12 °FOvercast.3 mph85%29.87 "Hg15 mi
4:00 AM14 °FOvercast.2 mph85%29.90 "Hg15 mi
3:00 AM10 °FOvercast.5 mph92%29.96 "Hg15 mi
2:00 AM5 °FOvercast.3 mph85%30.02 "Hg15 mi
1:00 AM0 °FPassing clouds.5 mph84%30.06 "Hg15 mi
12:00 AM1 °FPassing clouds.2 mph92%30.11 "Hg15 mi
11:00 PM
Mon, Mar 2
5 °FPassing clouds.No wind92%30.14 "Hg15 mi
10:00 PM10 °FPassing clouds.2 mph85%30.15 "Hg15 mi
9:00 PM19 °FClear.3 mph73%30.19 "Hg15 mi
8:00 PM19 °FClear.12 mph73%30.21 "Hg20 mi
7:00 PM21 °FPassing clouds.8 mph68%30.22 "Hg20 mi
6:00 PM23 °FPassing clouds.10 mph63%30.24 "Hg20 mi
5:00 PM25 °FPartly sunny.12 mph54%30.26 "Hg20 mi
4:00 PM25 °FPartly sunny.5 mph33%30.29 "Hg20 mi
3:00 PM23 °FPassing clouds.6 mph42%30.32 "Hg20 mi
2:00 PM23 °FSunny.5 mph33%30.36 "Hg20 mi
1:00 PM19 °FSunny.6 mph38%30.40 "Hg20 mi
12:00 PM16 °FSunny.9 mph48%30.40 "Hg20 mi
11:00 AM14 °FSunny.7 mph52%30.40 "Hg20 mi
Weather by CustomWeather, © 2015

See weather overviewHow to use our weather pages